Hourly Data Report for September 01, 2017

All times are specified in Local Standard Time (LST). Add 1 hour to adjust for Daylight Saving Time where and when it is observed.

PANGNIRTUNG
NUNAVUT

66°08'36.300" N
65°42'40.500" W
22.60 m
2403049
71826
WXP

Download Data

Hourly Data (September 2017)
Hourly Data Report for September 1, 2017
Temp Definition
°C
Dew Point Temp Definition
°C
Rel Hum Definition
%
Wind Dir Definition
10's deg

Wind Spd Definition
km/h
Visibility Definition
km
Stn Press Definition
kPa
Hmdx Definition


Wind Chill Definition


Weather Definition


TIME
00:00 3.2 2.1 93 26 3   99.96     LegendNANA
01:00 2.5 1.8 95 24 8   99.89     LegendNANA
02:00 2.2 1.8 97 24 6   99.83     LegendNANA
03:00 2.3 1.8 97 10 2   99.79     LegendNANA
04:00 2.7 1.8 94 10 7   99.73     LegendNANA
05:00 3.6 1.7 87 10 6   99.71     LegendNANA
06:00 4.1 2.0 86 6 6   99.69     LegendNANA
07:00 4.3 2.5 88 8 8   99.68     LegendNANA
08:00 4.1 3.0 92 8 6   99.67     LegendNANA
09:00 4.0 2.6 90 8 7   99.69     LegendNANA
10:00 4.1 3.0 93 7 8   99.68     LegendNANA
11:00 4.4 4.0 97 4 7   99.65     LegendNANA
12:00 4.6 4.2 97 7 4   99.64     LegendNANA
13:00 4.5 4.2 98 4 5   99.63     LegendNANA
14:00 4.6 4.4 99 4 4   99.63     LegendNANA
15:00 4.7 4.5 99 7 3   99.64     LegendNANA
16:00 4.8 4.7 99 14 2   99.63     LegendNANA
17:00 4.9 4.8 99 7 3   99.59     LegendNANA
18:00 4.9 4.9 100 8 2   99.60     LegendNANA
19:00 5.1 5.1 100 15 1   99.60     LegendNANA
20:00 5.0 5.0 100   0   99.58     LegendNANA
21:00 5.5 5.5 100 4 5   99.55     LegendNANA
22:00 5.5 5.5 100 24 8   99.53     LegendNANA
23:00 6.0 6.0 100 27 10   99.54     LegendNANA

Notes on Data Quality.

Legend

  • E = Estimated
  • M = Missing
  • NA = Not Available
  • ‡ = Partner data that is not subject to review by the National Climate Archives
Date modified: